GFSNW_850_temp_057.txt.gz
Temp
1 1 1 1 2 1 1 1 2 2 3 4 5 6 8 10 11 12 11 11 11 13 13 12 13 14 16 15 14 15 14 14 13 16 15 15 15 16 15 15 14 11 12 15
1 1 1 1 2 1 1 1 1 3 3 4 5 8 9 10 10 11 11 11 12 12 13 14 13 13 15 14 14 14 13 13 14 15 15 14 15 15 13 12 11 12 13 16
1 1 1 1 2 2 1 1 2 2 2 5 6 7 8 8 10 10 10 11 11 12 13 12 14 13 14 13 14 15 15 12 15 16 16 15 14 14 13 15 13 14 13 16
2 1 1 1 2 1 1 1 2 4 3 4 5 7 8 9 9 10 10 10 11 12 12 12 13 13 14 13 13 13 14 15 13 14 14 14 15 15 13 14 15 15 16 14
2 2 1 0 1 1 0 1 1 4 5 4 4 7 7 9 9 9 10 10 10 11 11 12 12 12 14 13 12 12 12 14 12 13 13 13 14 15 14 14 14 14 14 14
1 1 1 0 0 0 0 1 3 5 6 5 4 6 8 8 9 9 10 10 10 10 11 12 12 13 13 13 14 12 12 11 11 13 11 13 12 13 13 13 14 15 14 16
1 1 0 -0 0 1 1 1 3 4 4 5 5 6 8 8 8 8 9 9 10 11 11 12 12 12 11 10 10 12 10 10 9 10 9 12 15 12 13 14 14 13 13 13
1 1 -0 -0 0 1 0 2 3 5 2 5 6 6 7 8 9 8 9 10 10 11 11 10 11 9 11 10 10 10 10 8 8 10 11 12 14 13 13 14 17 13 13 12
1 0 0 -0 0 -0 0 1 3 4 4 4 6 6 6 7 7 6 8 10 10 10 6 7 9 11 11 12 10 9 7 8 10 8 11 12 13 13 12 14 14 13 12 10
1 -0 -0 -0 -0 0 0 1 2 3 4 4 6 6 6 7 6 6 7 9 9 9 5 6 7 10 11 11 10 9 8 7 10 7 11 11 11 12 13 14 16 12 11 10
-0 -0 -0 -0 0 -0 0 1 1 3 3 3 5 5 7 7 7 5 6 8 7 5 6 6 7 6 9 10 10 9 11 10 9 7 9 13 11 11 13 14 13 14 11 10
-0 -0 -0 -0 -0 0 0 0 0 0 2 2 3 4 5 7 8 8 9 8 6 7 7 5 6 6 4 9 12 9 10 11 11 11 12 11 11 15 15 14 14 13 12 11
-0 -1 -1 0 -0 0 -0 0 1 0 1 2 3 4 5 6 7 8 8 8 9 9 10 6 7 7 6 7 8 10 9 8 11 11 11 10 11 11 12 13 13 14 13 12
-0 -1 -1 -0 -0 -0 -1 -0 0 0 1 2 3 4 5 6 6 7 8 9 9 9 9 4 4 6 7 7 11 10 10 9 9 9 9 8 10 12 12 12 12 12 11 12
-1 -1 -1 -1 -1 -1 -1 -0 -1 0 0 1 3 4 6 6 6 7 7 9 9 8 6 3 6 6 6 4 6 7 9 10 10 11 12 14 14 16 13 11 10 11 12 9
-1 -1 -1 -1 -1 -1 -1 -1 -1 1 -0 1 2 4 4 6 6 7 7 8 8 8 8 5 7 8 7 6 8 10 12 12 13 12 14 12 12 12 10 10 10 10 10 11
-1 -1 -1 -1 -1 -1 0 1 1 1 0 1 1 2 5 5 6 6 6 6 7 8 8 5 7 6 7 4 9 10 11 12 12 12 11 8 9 8 8 9 7 7 8 7
-1 -1 -1 1 0 0 0 2 2 1 1 1 1 2 3 5 6 6 6 6 6 6 7 4 5 5 3 6 7 10 11 10 9 8 9 9 9 7 6 7 7 6 5 4
-1 -2 -2 -2 -1 -1 0 1 1 1 2 1 1 3 4 5 5 5 5 5 4 5 4 4 6 4 7 7 6 8 8 8 7 5 6 6 7 5 5 5 4 6 3 2
-1 -1 -1 -1 -1 0 1 0 0 2 3 2 2 2 3 5 4 3 3 3 4 5 5 4 4 5 6 6 7 8 7 6 6 4 0 1 1 1 1 1 1 3 2 1
-1 -1 -0 0 1 1 1 1 1 1 2 1 2 3 3 4 5 3 2 2 2 5 5 6 6 5 5 7 7 6 5 5 4 4 5 3 5 3 1 -0 -0 -1 -2 -2
0 1 1 1 1 1 0 1 1 2 3 2 2 2 5 3 5 4 2 3 2 6 3 4 6 3 1 2 2 3 3 3 4 4 3 1 0 2 1 -0 -2 -2 -2 -3
1 2 2 1 0 1 2 3 2 3 1 2 2 2 3 3 3 1 1 3 3 2 4 5 2 1 1 1 1 1 1 1 1 2 2 1 -0 -1 -0 -1 -2 -2 -3 -3
-0 -0 1 0 1 0 0 1 1 -0 1 1 2 1 1 1 1 1 3 2 1 4 5 3 1 -0 -0 1 1 1 -0 -0 2 -0 -1 -1 -2 -2 -2 -2 -3 -3 -4 -5
-1 -1 0 -0 -1 -1 -1 -1 -1 -0 0 1 1 1 1 1 1 1 2 3 3 2 2 1 -1 -1 -1 -1 -1 -1 -1 -1 -2 -2 -1 -2 -2 -3 -3 -4 -4 -4 -4 -5
-2 -4 -3 -3 -2 -3 -3 -3 -2 -1 -0 1 1 1 2 2 1 2 1 2 1 0 -1 -2 -2 -2 -2 -2 -2 -2 -2 -2 -2 -3 -3 -3 -3 -4 -4 -4 -4 -5 -6 -6
-2 -3 -5 -5 -4 -4 -4 -4 -4 -1 0 1 0 -0 -1 0 1 -0 -1 -1 -2 -3 -3 -3 -3 -3 -3 -3 -3 -3 -3 -3 -3 -4 -4 -4 -5 -5 -6 -6 -8 -7 -8 -8

GFSNW_850_temp_063.txt.gz
Temp
2 2 2 2 2 1 1 1 2 3 2 3 5 5 9 11 14 16 17 16 19 18 18 17 17 19 21 21 22 21 22 21 20 20 23 23 23 21 22 19 20 20 20 21
1 2 2 2 2 2 1 1 1 2 3 3 6 8 9 10 13 15 16 16 17 17 17 17 16 17 20 21 21 21 21 20 19 20 20 21 21 22 22 22 21 19 18 20
2 1 2 2 2 2 1 1 2 2 2 5 8 8 9 10 10 14 16 16 16 16 16 17 18 17 18 18 20 21 20 20 20 19 20 21 20 21 22 21 19 19 20 21
1 2 2 2 2 2 1 1 3 3 3 4 8 10 10 10 11 13 15 16 16 15 15 17 16 18 17 17 17 18 20 19 20 21 22 22 22 21 21 21 21 20 21 22
1 1 1 2 2 2 1 1 6 5 7 5 8 9 10 10 12 13 13 14 15 16 16 16 16 17 17 17 18 18 20 19 19 20 21 22 21 22 22 22 22 22 22 22
0 1 1 1 2 2 1 1 5 6 6 7 8 9 10 11 12 13 14 14 15 15 15 14 14 14 14 16 17 18 19 19 19 18 20 20 18 20 21 22 22 22 20 22
0 1 1 1 1 1 1 2 6 4 7 7 9 9 10 11 13 13 14 14 14 15 12 12 13 14 14 15 16 17 18 18 19 16 13 15 20 22 22 21 22 23 22 23
1 1 1 1 1 1 1 2 5 6 6 9 9 9 10 11 11 13 14 12 14 13 12 12 12 12 12 14 16 17 17 18 17 15 16 18 20 20 20 21 21 23 23 23
0 1 1 1 1 1 1 2 4 6 7 9 10 10 10 10 11 11 13 12 11 13 13 12 12 13 14 14 14 17 17 17 16 15 15 15 19 21 22 22 19 23 23 23
1 1 1 1 2 1 1 2 4 5 7 9 8 9 10 10 11 11 13 11 10 11 11 10 13 13 16 16 14 11 13 13 14 15 15 18 21 22 22 18 19 23 22 22
1 1 1 1 1 1 0 2 3 4 6 8 7 7 9 10 11 10 11 10 11 11 10 11 13 13 15 16 18 14 13 13 12 14 14 14 19 19 19 20 21 21 21 21
1 1 1 1 1 0 0 1 3 5 5 5 5 6 8 8 10 11 11 10 12 12 12 13 14 12 11 15 15 18 13 17 15 17 17 19 17 19 19 21 21 21 20 20
1 1 1 1 1 -0 1 2 3 4 4 4 5 6 5 5 6 7 11 11 12 13 13 14 13 12 14 13 14 17 17 18 16 17 19 19 18 18 18 18 18 19 18 19
1 1 1 1 -0 0 1 2 2 3 3 5 6 5 5 6 5 5 7 11 12 12 12 12 11 11 16 14 15 16 17 18 16 16 18 19 18 17 17 18 17 16 16 17
1 1 1 -0 0 0 1 1 2 4 6 6 6 5 4 6 4 5 7 8 11 11 11 9 10 13 14 14 14 14 17 17 15 15 18 17 18 18 17 18 17 15 15 15
-0 -0 -0 -0 -0 1 0 0 1 2 4 6 6 5 3 5 5 4 6 8 9 10 11 11 12 13 14 11 13 16 16 16 17 17 17 16 15 15 15 15 16 15 14 14
-0 -0 -0 -0 -0 0 1 2 2 3 4 6 6 7 6 4 4 3 6 7 8 9 9 10 12 13 12 11 12 15 16 16 16 16 15 14 14 14 12 12 13 12 12 12
-0 -0 -0 -0 -0 1 2 1 2 4 5 5 6 5 6 5 5 4 6 7 7 8 10 11 12 12 11 11 14 14 14 14 14 14 13 13 12 11 10 9 9 9 10 10
-0 -1 -0 0 0 2 1 2 1 2 4 5 2 5 5 5 7 5 6 7 7 8 9 10 11 11 10 12 13 14 14 14 14 14 14 13 10 10 10 8 8 8 8 7
-0 0 1 2 -0 1 2 1 2 3 4 3 3 5 5 3 4 5 5 6 7 6 7 9 9 11 13 12 7 11 12 9 12 10 10 10 9 9 8 7 7 7 5 4
0 1 -0 -1 0 1 1 1 3 2 2 3 5 5 5 2 2 5 6 6 5 6 7 7 7 7 5 4 5 6 6 7 8 7 7 6 7 8 6 5 4 3 3 2
0 0 -0 -0 0 0 1 2 3 4 6 6 6 4 2 0 1 4 4 6 4 7 4 5 5 2 1 1 1 2 2 3 4 4 4 4 4 3 2 1 0 -0 -1 -2
1 2 1 0 1 2 3 2 4 4 5 4 4 3 2 1 2 4 5 6 6 4 5 4 2 -0 -1 -1 -1 -1 -0 -0 -1 -0 -0 0 -0 -0 -0 -2 -3 -3 -4 -4
0 1 1 2 2 1 1 -0 2 1 1 3 4 3 4 2 4 3 5 3 4 5 6 3 1 -2 -2 -3 -3 -3 -3 -3 -3 -3 -3 -3 -3 -4 -5 -5 -5 -5 -6 -6
-2 -0 -1 -0 -2 -2 -3 -3 -1 -2 -0 2 3 2 3 2 3 2 3 4 5 3 3 1 -2 -3 -3 -4 -4 -4 -4 -5 -5 -5 -5 -6 -5 -6 -6 -6 -6 -5 -5 -6
-3 -4 -3 -3 -1 -2 -4 -4 -4 -3 -1 1 2 2 4 3 3 3 2 3 1 1 -1 -3 -3 -4 -5 -5 -5 -5 -5 -6 -6 -6 -7 -6 -6 -6 -6 -6 -6 -6 -6 -7
-3 -4 -6 -6 -5 -5 -6 -5 -5 -3 -2 1 2 2 0 3 2 0 -1 -1 -2 -3 -3 -4 -5 -5 -5 -6 -6 -6 -6 -7 -7 -7 -7 -7 -7 -7 -7 -7 -8 -8 -8 -8

GFSNW_850_temp_069.txt.gz
Temp
2 2 2 2 2 2 2 2 2 2 3 2 3 3 5 6 8 10 10 11 12 12 12 13 16 16 17 19 17 17 17 16 14 16 19 21 20 18 17 13 16 15 11 14
1 1 1 2 2 2 2 2 1 2 2 3 2 5 5 6 7 8 9 10 12 13 12 11 15 16 17 19 16 15 15 13 12 15 18 20 19 19 19 18 15 14 11 13
1 1 2 2 2 2 2 1 1 2 2 3 4 4 5 5 6 8 9 10 10 11 12 13 14 14 17 17 17 17 16 15 14 13 15 18 18 19 19 17 13 14 13 16
1 1 2 1 2 2 3 0 1 3 3 3 4 5 6 5 6 7 9 9 9 10 11 11 13 12 12 16 16 15 14 13 15 15 18 18 18 18 19 19 17 14 16 17
1 1 1 1 2 2 2 -0 2 3 5 4 3 4 5 6 7 9 7 8 9 11 11 11 10 10 12 11 16 14 14 13 15 15 17 18 18 18 19 19 18 18 19 18
0 1 1 1 1 2 2 0 3 5 4 4 3 4 5 6 8 9 10 9 9 10 10 11 10 10 10 11 13 13 14 14 14 13 15 16 13 16 16 18 19 18 16 17
0 1 0 1 1 1 2 1 3 3 4 3 4 5 5 6 8 7 10 10 9 11 12 11 10 10 9 11 11 13 13 14 12 11 12 13 16 18 19 18 19 19 20 20
0 0 0 0 1 1 1 -0 2 3 2 5 5 5 6 6 7 8 9 11 11 12 11 10 9 8 8 10 12 12 13 12 10 12 13 14 16 18 18 18 17 19 19 19
1 1 1 1 0 0 0 -0 1 3 4 5 7 6 6 6 6 6 8 10 12 12 8 6 7 8 10 11 12 13 14 12 10 9 12 12 15 17 19 19 14 18 19 18
1 1 1 1 0 -0 -0 0 1 2 4 7 7 6 7 7 7 6 8 10 10 12 5 7 5 6 10 11 10 10 8 9 8 8 10 11 16 17 19 15 12 18 20 20
1 1 1 1 0 -0 -0 -0 1 1 4 6 7 8 8 8 8 6 8 8 8 5 6 6 5 4 9 10 11 9 9 9 8 8 10 11 17 18 16 14 19 20 19 20
0 1 0 1 0 0 -0 -0 1 1 4 5 6 7 8 9 8 9 10 9 7 6 6 6 6 5 5 9 7 12 9 10 10 11 10 13 17 15 18 19 18 18 19 19
1 0 1 0 0 -0 -0 0 1 2 2 4 5 6 8 8 7 8 8 10 10 8 8 7 7 8 7 7 9 12 13 12 10 12 12 11 13 13 14 17 17 17 18 18
1 1 0 0 0 -0 0 1 1 2 2 2 4 5 7 7 7 7 9 10 10 10 9 6 5 5 10 7 10 9 11 12 12 11 12 12 13 11 14 14 15 16 17 17
0 1 1 0 1 1 1 1 1 3 4 2 4 5 6 4 6 8 8 8 8 8 5 4 5 8 8 7 9 9 12 11 10 9 13 12 13 15 15 15 14 16 16 17
0 0 1 1 1 1 1 1 1 2 3 4 3 6 6 6 6 6 7 7 7 8 5 4 6 9 10 3 7 12 15 15 15 13 16 15 15 15 15 15 14 14 15 15
1 1 1 1 1 1 2 2 2 3 4 3 2 3 6 5 5 6 6 6 6 7 7 5 6 7 9 2 6 12 14 14 14 14 14 15 15 13 13 14 13 13 13 13
1 1 1 0 1 2 2 2 3 4 4 3 1 3 4 5 5 4 6 6 6 6 5 4 6 6 6 5 9 11 10 12 12 12 13 14 14 13 12 12 12 11 11 12
0 -0 1 1 2 1 1 2 3 2 4 3 0 1 2 5 6 6 6 6 1 5 3 4 5 6 5 4 4 3 3 5 8 10 11 12 11 11 10 10 10 10 9 9
0 0 1 -0 1 1 2 2 3 3 4 4 1 5 2 4 3 1 2 4 2 3 3 7 4 3 0 -0 0 1 2 3 6 7 7 8 9 9 9 9 8 8 8 7
2 1 0 0 1 2 3 2 3 3 2 4 4 5 2 2 2 2 2 2 1 3 3 5 4 2 0 -2 -1 -1 1 2 3 4 6 6 7 7 7 6 6 6 6 6
2 2 2 2 2 2 1 1 2 2 3 3 1 2 2 2 2 2 1 2 2 3 3 3 2 -1 -2 -3 -3 -3 -2 -0 1 2 3 4 4 3 4 3 2 2 3 1
3 2 1 2 0 1 1 2 0 1 -0 1 3 2 2 1 2 -0 2 2 4 2 3 1 -1 -3 -4 -4 -5 -4 -4 -3 -2 -2 -2 -1 -1 -1 -1 -1 -3 -3 -3 -4
0 1 -2 -2 -2 -2 -3 -2 -2 -2 -2 -2 0 1 1 1 0 0 3 2 2 3 2 -1 -3 -4 -4 -5 -5 -5 -6 -5 -5 -5 -5 -5 -5 -5 -5 -5 -5 -5 -5 -6
-2 -1 -2 -3 -3 -3 -3 -4 -3 -3 -3 -2 1 2 2 1 2 1 2 2 -0 -1 -2 -3 -4 -5 -5 -5 -5 -6 -6 -7 -7 -7 -7 -7 -6 -6 -7 -6 -6 -6 -6 -7
-4 -5 -5 -5 -6 -7 -4 -5 -4 -4 -3 -1 -1 1 2 1 -1 -1 -2 -1 -3 -4 -5 -5 -5 -6 -6 -6 -6 -7 -7 -7 -8 -8 -8 -8 -8 -8 -8 -8 -7 -8 -8 -8
-3 -5 -6 -6 -6 -6 -6 -5 -6 -4 -3 -1 -1 -2 -1 -0 -2 -3 -3 -5 -6 -6 -7 -7 -6 -7 -7 -7 -7 -8 -8 -8 -8 -9 -9 -9 -8 -8 -8 -9 -9 -9 -9 -10

GFSNW_850_temp_072.txt.gz
Temp
1 1 1 2 2 2 2 2 2 2 3 1 2 2 4 6 7 7 7 9 9 9 10 10 11 12 14 15 16 15 15 14 13 15 17 17 16 18 16 12 13 13 11 13
0 1 1 1 2 2 2 2 1 1 3 2 2 4 4 5 6 7 7 8 9 10 10 8 11 12 13 15 14 15 14 13 12 14 16 17 16 17 17 16 13 13 12 13
0 1 1 1 1 1 1 1 1 1 1 3 4 3 3 5 5 6 6 7 8 8 8 10 11 11 13 12 14 16 16 12 15 14 14 15 15 17 18 16 12 13 13 16
0 1 1 1 1 1 1 0 1 2 3 2 4 4 5 4 4 6 6 5 6 7 7 8 10 10 10 12 14 13 14 12 14 14 15 15 15 16 17 17 15 15 16 16
0 0 1 1 1 1 1 -1 1 2 4 3 3 4 3 5 5 6 5 5 7 7 7 8 8 10 9 10 10 11 13 12 13 12 14 15 14 15 17 17 16 16 16 16
0 0 1 1 1 1 2 1 1 4 3 3 2 3 4 4 6 6 7 7 6 6 7 9 11 10 10 9 8 9 12 12 11 11 14 14 12 13 14 15 16 16 15 16
0 0 0 1 1 1 1 1 1 2 3 3 3 5 5 5 5 5 7 7 7 8 10 10 10 10 10 9 9 9 10 11 10 8 11 10 12 15 15 14 16 17 18 18
0 0 0 0 1 1 1 1 1 1 3 3 4 4 4 5 5 5 6 7 8 9 10 8 8 6 8 8 10 9 10 11 8 9 10 12 13 16 16 16 16 18 17 17
1 0 0 0 0 1 0 1 1 1 3 3 5 4 5 4 4 4 5 6 8 8 5 6 6 6 8 10 10 11 9 8 10 7 10 9 13 15 17 17 14 17 17 17
0 0 0 0 0 0 0 0 -0 0 0 4 5 5 5 5 5 4 5 7 6 8 4 3 3 5 9 8 8 9 7 6 8 6 8 9 12 15 18 14 13 16 18 18
1 1 0 0 0 0 -0 0 0 0 -0 3 6 6 6 6 6 4 5 6 6 4 4 5 3 3 6 8 10 9 10 8 8 7 7 10 13 15 15 13 16 17 17 18
1 1 1 0 0 0 0 0 0 1 1 3 6 7 6 7 7 6 7 7 6 6 4 4 4 3 2 7 8 10 9 9 9 9 9 11 12 12 13 14 14 15 16 17
1 0 1 1 1 0 0 -0 -0 0 0 2 5 6 7 7 8 8 7 7 8 7 9 5 5 4 4 4 6 10 10 10 10 11 11 12 13 14 14 14 14 14 14 16
0 0 1 1 0 0 0 0 1 1 0 1 3 6 6 7 7 7 8 8 9 9 9 5 3 5 7 4 8 7 8 10 10 10 12 12 12 14 14 15 15 14 14 16
0 0 1 0 0 0 -0 -0 1 1 2 2 3 5 5 6 7 7 8 8 9 9 4 2 3 5 6 5 6 7 9 9 8 8 12 12 13 16 14 14 13 14 14 16
0 0 0 0 0 0 -0 1 0 1 0 4 2 4 5 6 6 6 6 8 9 8 5 3 5 7 6 4 6 9 11 13 13 11 13 14 15 15 14 14 14 14 14 15
0 1 0 0 -0 0 1 2 2 1 3 4 2 2 4 6 4 4 5 6 7 8 7 4 5 6 7 3 4 5 4 9 10 12 13 13 13 14 13 13 12 13 13 13
0 0 0 0 1 1 1 2 3 4 5 4 1 3 4 5 4 4 5 5 5 6 5 5 4 5 5 4 4 3 2 6 9 9 11 13 13 12 12 11 12 13 12 12
0 0 1 0 0 1 1 1 3 4 4 0 -1 0 3 5 4 5 5 5 0 4 0 3 5 4 3 1 0 1 1 1 3 8 9 10 10 9 10 10 10 11 10 10
1 1 1 1 1 1 1 1 3 4 4 4 -0 3 2 3 2 1 0 1 -1 1 1 4 3 1 -1 -2 -1 -2 -1 1 3 6 5 6 6 6 7 8 8 8 8 7
2 2 1 1 2 2 3 2 1 2 1 3 3 3 1 2 2 2 2 1 1 0 2 2 3 0 -1 -3 -3 -3 -2 -1 0 0 1 2 4 3 4 4 5 5 4 3
3 3 2 2 2 3 0 -2 0 1 1 1 0 1 2 1 2 2 1 2 1 1 2 1 0 -2 -4 -4 -5 -4 -3 -3 -1 0 1 1 1 0 -0 -1 -1 -1 -2 -3
3 3 2 2 -0 -3 -2 -1 -0 0 -1 -2 0 -1 1 0 0 -0 1 3 3 2 1 -1 -3 -4 -5 -5 -6 -6 -6 -5 -4 -4 -4 -3 -4 -4 -4 -5 -5 -5 -5 -6
1 -1 -4 -4 -4 -4 -4 -3 -3 -3 -3 -3 -1 -1 1 -0 1 0 3 2 0 0 -2 -3 -4 -5 -5 -6 -6 -7 -7 -7 -7 -7 -6 -6 -6 -7 -7 -7 -6 -6 -6 -6
-3 -3 -5 -6 -5 -5 -5 -5 -3 -4 -4 -3 0 1 2 1 1 -1 -0 -1 -3 -3 -4 -4 -5 -6 -6 -6 -7 -7 -8 -8 -8 -8 -8 -8 -8 -8 -8 -8 -7 -7 -7 -7
-5 -6 -7 -6 -9 -9 -6 -5 -5 -4 -4 -2 -1 0 0 -1 -3 -3 -3 -3 -4 -5 -6 -7 -6 -7 -7 -7 -8 -8 -8 -9 -9 -9 -9 -9 -9 -9 -9 -8 -8 -9 -9 -9
-5 -7 -8 -7 -7 -8 -7 -7 -7 -5 -4 -3 -2 -3 -3 -2 -3 -4 -5 -7 -7 -8 -8 -8 -8 -8 -8 -8 -9 -9 -9 -9 -9 -9 -9 -9 -9 -9 -9 -9 -10 -10 -10 -10